M0CJS Weather Reports


time (UTC)temp
C
wind
direction
speed
KPH
gust
KPH
rain 1hr
cm
rain 24hr
cm
rain mn
cm
humidity
%
barometer
mb
20260510233516 4 0.0 1.6 0.00 0.00 0.00 80 1015.5
20260510232516 5 0.0 1.6 0.00 0.00 0.00 79 1015.7
20260510231516 5 293 1.6 3.2 0.00 0.00 0.00 80 1015.9
20260510230516 5 293 3.2 4.8 0.00 0.00 0.00 80 1016.0
20260510225516 5 293 4.8 6.4 0.00 0.00 0.00 78 1016.1
20260510224518 5 293 1.6 3.2 0.00 0.00 0.00 78 1016.1
20260510223518 5 293 3.2 3.2 0.00 0.00 0.00 77 1016.1
20260510222516 6 0.0 4.8 0.00 0.00 0.00 76 1016.2
20260510221518 6 0.0 0.0 0.00 0.00 0.00 75 1016.2
20260510220516 6 0.0 3.2 0.00 0.00 0.00 74 1016.2
20260510215516 6 158 1.6 4.8 0.00 0.00 0.00 74 1016.2
20260510214516 6 0.0 3.2 0.00 0.00 0.00 74 1016.5
20260510213516 6 135 1.6 3.2 0.00 0.00 0.00 73 1016.5
20260510212516 6 0.0 3.2 0.00 0.00 0.00 73 1016.6
20260510211518 6 0.0 1.6 0.00 0.00 0.00 72 1016.7
20260510210536 7 0.0 3.2 0.00 0.00 0.00 71 1016.6
20260510205516 7 0.0 3.2 0.00 0.00 0.00 70 1016.7
20260510204516 7 0.0 1.6 0.00 0.00 0.00 68 1016.7
20260510203517 7 0.0 1.6 0.00 0.00 0.00 67 1016.7
20260510202516 8 0.0 1.6 0.00 0.00 0.00 66 1016.8
20260510201517 8 0.0 0.0 0.00 0.00 0.00 65 1016.9
20260510200516 8 0.0 1.6 0.00 0.00 0.00 64 1017.0
20260510195516 8 0.0 1.6 0.00 0.00 0.00 64 1016.9
20260510194516 8 0.0 1.6 0.00 0.00 0.00 63 1016.9
20260510193517 9 68 1.6 3.2 0.00 0.00 0.00 62 1017.1
20260510192516 9 68 3.2 6.4 0.00 0.00 0.00 61 1017.1
20260510191516 9 68 3.2 8.0 0.00 0.00 0.00 61 1017.1
20260510190516 10 68 4.8 12.9 0.00 0.00 0.00 62 1017.2
20260510185537 10 45 4.8 8.0 0.00 0.00 0.00 63 1017.3
20260510184516 10 45 4.8 9.7 0.00 0.00 0.00 60 1017.3
20260510183517 10 45 6.4 16.1 0.00 0.00 0.00 59 1017.4
20260510182515 11 45 4.8 12.9 0.00 0.00 0.00 60 1017.4
20260510181517 11 68 4.8 14.5 0.00 0.00 0.00 59 1017.5
20260510180519 11 68 4.8 12.9 0.00 0.00 0.00 58 1017.6
20260510175516 11 45 6.4 14.5 0.00 0.00 0.00 57 1017.6
20260510174516 11 45 8.0 14.5 0.00 0.00 0.00 55 1017.6
20260510173535 11 68 3.2 9.7 0.00 0.00 0.00 55 1017.5
20260510172515 11 45 9.7 19.3 0.00 0.00 0.00 55 1017.6
20260510171515 11 68 3.2 12.9 0.00 0.00 0.00 56 1017.7
20260510170516 12 45 8.0 17.7 0.00 0.00 0.00 53 1017.9
20260510165515 12 45 6.4 19.3 0.00 0.00 0.00 55 1017.9
20260510164516 12 45 6.4 16.1 0.00 0.00 0.00 55 1018.2
20260510163536 12 45 6.4 19.3 0.00 0.00 0.00 53 1018.3
20260510162535 12 45 9.7 17.7 0.00 0.00 0.00 53 1018.4
20260510161515 12 45 9.7 22.5 0.00 0.00 0.00 53 1018.4
20260510160515 12 45 16.1 24.1 0.00 0.00 0.00 52 1018.6
20260510155515 12 68 9.7 20.9 0.00 0.00 0.00 51 1018.8
20260510154515 12 45 9.7 24.1 0.00 0.00 0.00 55 1018.8
20260510153515 12 45 12.9 22.5 0.00 0.00 0.00 53 1018.8
20260510152515 12 45 11.3 20.9 0.00 0.00 0.00 54 1018.9
20260510151515 12 45 11.3 27.4 0.00 0.00 0.00 54 1019.2
20260510150515 12 45 9.7 16.1 0.00 0.00 0.00 55 1019.3
20260510145515 12 45 14.5 25.7 0.00 0.00 0.00 54 1019.3
20260510144517 13 45 9.7 20.9 0.00 0.00 0.00 55 1019.5
20260510143517 12 45 11.3 22.5 0.00 0.00 0.00 56 1019.5
20260510142517 13 45 9.7 19.3 0.00 0.00 0.00 55 1019.6
20260510141537 13 45 12.9 20.9 0.00 0.00 0.00 55 1019.7
20260510140517 13 45 12.9 22.5 0.00 0.00 0.00 54 1019.7
20260510135517 13 68 8.0 24.1 0.00 0.00 0.00 53 1019.8
20260510134517 12 45 12.9 24.1 0.00 0.00 0.00 53 1019.9
20260510133517 13 45 8.0 17.7 0.00 0.00 0.00 56 1019.9
20260510132537 13 45 12.9 25.7 0.00 0.00 0.00 55 1020.0
20260510131517 12 68 8.0 19.3 0.00 0.00 0.00 57 1020.0
20260510130517 12 45 17.7 29.0 0.00 0.00 0.00 58 1020.2
20260510125517 12 45 6.4 16.1 0.00 0.00 0.00 56 1020.2
20260510124517 12 45 12.9 22.5 0.00 0.00 0.00 59 1020.3
20260510123517 13 45 11.3 20.9 0.00 0.00 0.00 58 1020.3
20260510122517 13 45 11.3 24.1 0.00 0.00 0.00 58 1020.5
20260510121517 13 68 8.0 20.9 0.00 0.00 0.00 57 1020.6
20260510120537 13 68 8.0 22.5 0.00 0.00 0.00 58 1020.7
20260510115517 12 45 9.7 25.7 0.00 0.00 0.00 58 1020.9
20260510114517 12 45 11.3 24.1 0.00 0.00 0.00 59 1020.9
20260510113537 11 45 11.3 20.9 0.00 0.00 0.00 63 1021.0
20260510112517 12 45 9.7 22.5 0.00 0.00 0.00 61 1021.2
20260510111517 11 45 11.3 20.9 0.00 0.00 0.00 63 1021.3
20260510110517 12 45 9.7 20.9 0.00 0.00 0.00 62 1021.4
20260510105517 12 45 9.7 25.7 0.00 0.00 0.00 62 1021.5
20260510104517 11 45 11.3 27.4 0.00 0.00 0.00 64 1021.5
20260510103516 12 45 11.3 22.5 0.00 0.00 0.00 66 1021.5
20260510102538 11 45 9.7 22.5 0.00 0.00 0.00 68 1021.5
20260510101537 10 45 16.1 27.4 0.00 0.00 0.00 69 1021.6
20260510100517 10 45 9.7 20.9 0.00 0.00 0.00 71 1021.8
20260510095538 10 45 12.9 20.9 0.00 0.00 0.00 73 1021.7
20260510094517 10 45 12.9 25.7 0.00 0.00 0.00 74 1021.9
20260510093518 9 45 11.3 19.3 0.00 0.00 0.00 75 1021.9
20260510092516 9 45 8.0 16.1 0.00 0.00 0.00 77 1022.0
20260510091518 9 45 9.7 22.5 0.00 0.00 0.00 77 1022.1
20260510090518 9 45 11.3 20.9 0.00 0.00 0.00 78 1022.3
20260510085516 8 45 14.5 22.5 0.00 0.00 0.00 77 1022.1
20260510084516 9 45 11.3 25.7 0.00 0.00 0.00 77 1022.2
20260510083518 9 68 12.9 24.1 0.00 0.00 0.00 75 1022.2
20260510082517 9 45 14.5 29.0 0.00 0.00 0.00 76 1022.0
20260510081517 9 45 9.7 22.5 0.00 0.00 0.00 78 1022.0
20260510080516 9 45 14.5 25.7 0.00 0.00 0.00 77 1021.9
20260510075516 8 45 12.9 25.7 0.00 0.00 0.00 79 1021.9
20260510074518 8 45 12.9 24.1 0.00 0.00 0.00 79 1021.9
20260510073518 8 45 16.1 27.4 0.00 0.00 0.00 80 1022.0
20260510072518 8 45 17.7 30.6 0.00 0.00 0.00 81 1022.1
20260510071537 8 45 14.5 24.1 0.00 0.00 0.00 82 1022.0
20260510070518 7 45 14.5 27.4 0.00 0.00 0.00 83 1022.1
20260510065516 7 45 12.9 27.4 0.00 0.00 0.00 83 1022.0
20260510064516 7 45 12.9 25.7 0.00 0.00 0.00 84 1022.0
20260510063538 7 45 12.9 24.1 0.00 0.00 0.00 85 1021.9
20260510062518 7 45 12.9 22.5 0.00 0.00 0.00 85 1021.9
20260510061516 7 45 14.5 27.4 0.00 0.00 0.00 86 1021.8
20260510060516 7 45 12.9 25.7 0.00 0.00 0.00 86 1021.8
20260510055516 7 45 16.1 27.4 0.00 0.00 0.00 86 1021.8
20260510054536 7 45 11.3 20.9 0.00 0.00 0.00 87 1021.9
20260510053518 7 45 9.7 17.7 0.00 0.00 0.00 87 1022.0
20260510052518 7 45 12.9 22.5 0.00 0.00 0.00 88 1022.0
20260510051516 7 45 14.5 22.5 0.00 0.00 0.00 88 1022.0
20260510050516 7 45 9.7 17.7 0.00 0.00 0.00 89 1022.1
20260510045539 7 45 11.3 20.9 0.00 0.00 0.00 89 1022.0
20260510044518 7 45 14.5 24.1 0.00 0.00 0.00 89 1021.9
20260510043516 7 45 11.3 22.5 0.00 0.00 0.00 89 1021.8
20260510042516 7 45 11.3 20.9 0.00 0.00 0.00 89 1021.8
20260510041516 7 45 11.3 20.9 0.00 0.00 0.00 89 1021.8
20260510040517 7 45 14.5 24.1 0.00 0.00 0.00 89 1022.0
20260510035517 7 45 14.5 24.1 0.00 0.00 0.00 90 1021.9
20260510034517 7 45 14.5 24.1 0.00 0.00 0.00 90 1022.0
20260510033516 7 45 12.9 24.1 0.00 0.00 0.00 90 1021.9
20260510032639 8 45 14.5 20.9 0.00 0.00 0.00 91 1022.0
20260510031519 8 45 14.5 25.7 0.00 0.00 0.00 91 1022.1
20260510030516 8 45 12.9 22.5 0.00 0.00 0.00 91 1022.3
20260510025516 8 45 14.5 22.5 0.00 0.00 0.00 91 1022.4
20260510024516 8 45 9.7 19.3 0.00 0.00 0.00 92 1022.5
20260510023537 8 45 12.9 24.1 0.00 0.00 0.00 92 1022.6
20260510022516 8 45 14.5 24.1 0.00 0.00 0.00 92 1022.6
20260510021515 8 45 11.3 22.5 0.00 0.00 0.00 93 1022.6
20260510020515 8 45 14.5 24.1 0.00 0.00 0.00 92 1022.5
20260510015517 8 45 11.3 17.7 0.00 0.00 0.00 92 1022.7
20260510014517 8 45 12.9 24.1 0.00 0.00 0.00 92 1022.7
20260510013537 8 45 12.9 22.5 0.00 0.00 0.00 92 1022.6
20260510012517 8 45 11.3 20.9 0.00 0.00 0.00 92 1022.5
20260510011517 8 45 12.9 24.1 0.00 0.00 0.00 92 1022.5
20260510010517 8 45 12.9 20.9 0.00 0.00 0.00 92 1022.4
20260510005516 8 45 11.3 22.5 0.00 0.00 0.00 92 1022.3
20260510004537 8 45 12.9 24.1 0.00 0.00 0.00 92 1022.3
20260510003516 8 45 12.9 27.4 0.00 0.00 0.00 91 1022.4
20260510002519 8 45 12.9 20.9 0.00 0.00 0.00 91 1022.5
20260510001537 9 45 14.5 22.5 0.00 0.00 0.00 89 1022.7
20260510000515 9 45 14.5 25.7 0.00 0.00 0.00 88 1022.7
20260509235515 9 45 14.5 24.1 0.00 0.00 0.00 88 1022.8
20260509234515 9 45 17.7 32.2 0.00 0.00 0.00 88 1022.8